Hourly Data Report for October 24, 2015

All times are specified in Local Standard Time (LST). Add 1 hour to adjust for Daylight Saving Time where and when it is observed.

ST LEONARD CS
NEW BRUNSWICK

47°09'28.050" N
67°49'55.014" W
245.00 m
810I001
71019
WIY

Download Data

Hourly Data (October 2015)
Hourly Data Report for October 24, 2015
Temp Definition
°C
Dew Point Temp Definition
°C
Rel Hum Definition
%
Wind Dir Definition
10's deg

Wind Spd Definition
km/h
Visibility Definition
km
Stn Press Definition
kPa
Hmdx Definition


Wind Chill Definition


Weather Definition


TIME
00:00 -0.9 -2.8 87 35 3   99.79   -2 LegendNANA
01:00 -2.2 -3.4 92 34 7   99.82   -5 LegendNANA
02:00 -2.3 -3.2 94 32 5   99.83   -4 LegendNANA
03:00 -3.3 -3.8 96 26 2   99.87   -4 LegendNANA
04:00 -4.2 -4.6 97 32 4   99.86   -6 LegendNANA
05:00 -4.1 -4.4 98 6 5   99.83   -6 LegendNANA
06:00 -5.3 -5.8 97 27 5   99.88   -8 LegendNANA
07:00 -5.3 -5.6 98 19 1   99.90   -6 LegendNANA
08:00 -3.4 -4.2 94 0 1   99.91   -4 LegendNANA
09:00 -0.4 -3.2 81 20 1   99.95   -1 LegendNANA
10:00 1.7 -2.0 76 17 8   99.94     LegendNANA
11:00 2.5 -1.4 76 17 12   99.89     LegendNANA
12:00 4.3 -1.2 67 19 12   99.82     LegendNANA
13:00 5.0 -1.2 64 18 13   99.70     LegendNANA
14:00 5.7 -0.7 63 19 16   99.66     LegendNANA
15:00 6.6 -0.4 61 18 18   99.59     LegendNANA
16:00 6.3 0.0 64 16 16   99.52     LegendNANA
17:00 5.7 0.2 68 15 16   99.46     LegendNANA
18:00 4.0 0.0 75 14 11   99.45     LegendNANA
19:00 3.4 -0.1 78 15 11   99.44     LegendNANA
20:00 3.6 0.3 79 15 14   99.35     LegendNANA
21:00 4.2 0.8 79 16 17   99.28     LegendNANA
22:00 4.4 1.1 79 17 21   99.20     LegendNANA
23:00 4.4 1.4 81 16 22   99.06     LegendNANA

Notes on Data Quality.

Legend

  • E = Estimated
  • M = Missing
  • NA = Not Available
  • ‡ = Partner data that is not subject to review by the National Climate Archives
Date modified: